Regional Weather Roundup
Issued by NWS

Home | Current Version | Previous Version | Text Only | Print | Product List | Glossary On
Versions: 1 2 3 4 5 6 7 8 9 10 11 12 13 14 15 16 17 18 19 20 21 22 23 24 25 26 27 28 29 30 31 32 33 34 35 36 37 38 39 40 41 42 43 44 45 46 47 48 49 50
000
ASUS43 KMKX 050221
RWRWI

WISCONSIN REGIONAL WEATHER ROUNDUP
NATIONAL WEATHER SERVICE MILWAUKEE/SULLIVAN WI
900 PM CDT TUE AUG 04 2015

NOTE: "FAIR" INDICATES FEW OR NO CLOUDS BELOW 12,000 FEET WITH NO
SIGNIFICANT WEATHER AND/OR OBSTRUCTIONS TO VISIBILITY.

WIZ001-002-006>008-014>016-023>028-050300-
NORTHWEST WISCONSIN

CITY           SKY/WX    TMP DP  RH WIND       PRES   REMARKS
SUPERIOR ARPT  MOCLDY    58  52  81 NE6       30.02R
ASHLAND        CLEAR     54  52  93 CALM      30.04R
HAYWARD        PTCLDY    62  55  77 NE6       30.02R
SIREN          CLEAR     67  55  64 CALM      30.01R
CUMBERLAND     PTCLDY    64  52  63 N3        30.01R
RICE LAKE      CLEAR     65  56  71 N3        30.01R
CHETEK         CLEAR     67  57  70 CALM      30.00R
LADYSMITH      CLEAR     63  57  80 N6        30.03R
EAU CLAIRE     CLEAR     66  58  75 CALM      29.98R
MENOMONIE      CLEAR     67  58  71 CALM      30.00R
NEW RICHMOND   CLEAR     65  57  74 CALM      30.00R
OSCEOLA        CLEAR     66  59  78 CALM      30.01S
$$

WIZ003>005-009-010-017-018-050300-
NORTH CENTRAL WISCONSIN

CITY           SKY/WX    TMP DP  RH WIND       PRES   REMARKS
MANITOWISH WTR CLEAR     59  50  73 N3        30.04R
ARBOR VITAE    PTCLDY    60  51  72 N3        30.03R
WOODRUFF       PTCLDY    60  51  72 N3        30.03R
RHINELANDER    CLEAR     62  51  67 CALM      30.03R
EAGLE RIVER    CLEAR     57  48  71 N6        30.03R
LAND O LAKES   CLEAR     58  49  74 N3        30.05R
PHILLIPS       CLEAR     58  53  82 NE5       30.02R
TOMAHAWK       MOCLDY    60  53  78 CALM      30.03R
MEDFORD        CLEAR     57  55  92 CALM      30.02R
MERRILL        NOT AVBL
$$

WIZ029-030-035-036-043>047-050300-
CENTRAL WISCONSIN

CITY           SKY/WX    TMP DP  RH WIND       PRES   REMARKS
WAUSAU         PTCLDY    66  52  60 CALM      29.99R
MOSINEE        CLEAR     66  54  63 CALM      30.02R
MARSHFIELD     CLEAR     66  54  65 CALM      30.01R
STEVENS POINT  PTCLDY    62  53  72 CALM      30.01R
WAUPACA        CLEAR     66  55  68 CALM      30.00R
WAUTOMA        CLEAR     67  55  65 CALM      30.01R
WISC RAPIDS    PTCLDY    64  53  67 CALM      30.01R
CAMP DOUGLAS   CLEAR     59  59 100 CALM      30.01R
$$

WIZ011>013-019>022-031-037>040-048>050-050300-
NORTHEAST WISCONSIN

CITY           SKY/WX    TMP DP  RH WIND       PRES   REMARKS
ANTIGO         PTCLDY    58  52  81 CALM      30.02R
SHAWANO        CLOUDY    67  55  64 N3        30.00R
OCONTO         MOCLDY    64  58  81 CALM      29.99R
STURGEON BAY   CLEAR     63  55  77 CALM      30.03R
GREEN BAY      CLEAR     65  56  72 N6        29.99R
MANITOWOC      CLEAR     64  60  87 MISG      29.99R
APPLETON       PTCLDY    66  52  59 NW6       29.99R
CLINTONVILLE   PTCLDY    63  54  72 CALM      30.00R
OSHKOSH        CLEAR     69  53  56 CALM      29.99R
$$

WIZ032>034-041-042-053>061-050300-
SOUTHWEST WISCONSIN

CITY           SKY/WX    TMP DP  RH WIND       PRES   REMARKS
LA CROSSE      CLEAR     71  55  56 SW5       30.00R
SPARTA         CLEAR     63  55  76 CALM      30.02R
VIROQUA        CLEAR     63  58  84 CALM      30.03R
BOSCOBEL       PTCLDY    63  59  87 CALM      30.02R
PRAIRIE DU CHI MOCLDY    67  58  73 CALM      30.02R
PLATTEVILLE    MOCLDY    68  56  65 W3        30.04R
$$

WIZ056-057-062-063-064-067-068-050300-
SOUTH CENTRAL WISCONSIN

CITY           SKY/WX    TMP DP  RH WIND       PRES   REMARKS
REEDSBURG      PTCLDY    68  56  65 CALM      30.01R
BARABOO/DELLS  MOCLDY    69  52  53 CALM      30.02R
LONE ROCK      CLEAR     65  58  78 CALM      30.02R
MINERAL POINT  PTCLDY    70  52  52 CALM      30.04R
MADISON        MOCLDY    66  55  67 CALM      30.01R
MIDDLETON      PTCLDY    64  57  78 CALM      30.02R
WATERTOWN      MOCLDY    66  58  75 CALM      30.01R
MONROE         PTCLDY    70  55  60 W8        30.03R
JANESVILLE     PTCLDY    66  57  72 SW3       30.01R
$$

WIZ051-052-058>065-066-070>072-050300-
SOUTHEAST WISCONSIN

CITY           SKY/WX    TMP DP  RH WIND       PRES   REMARKS
MILWAUKEE      PTCLDY    69  56  62 S7        30.00R
WAUKESHA       PTCLDY    66  52  59 CALM      30.01R
MILWAUKEE/TIMM CLEAR     72  48  43 CALM      30.00R
RACINE         CLEAR     67  57  70 S5        30.02R
BURLINGTON     PTCLDY    60  56  85 CALM      30.01R
KENOSHA        PTCLDY    67  56  67 S5        30.01R
FOND DU LAC    CLEAR     66  56  70 W5        30.00R
SHEBOYGAN      PTCLDY    64  56  75 CALM      29.99R
WEST BEND      CLEAR     64  55  72 CALM      30.00R
JUNEAU         MOCLDY    66  55  69 CALM      30.02R
$$

LSZ147-162-050300-
LAKE SUPERIOR

STATION/POSITION TIME  TEMP    WIND        PRES    WAVE
                       AIR SEA DIR/SP/G            HT/PER
                 (UTC) (F)     (DEG/KT/KT) (MB)    (FT/S)
W MID LAKE BUOY  0150   58 58  220/  6/  8 1016.8R   0
DEVILS ISLAND    0200   60     140/  6/  7 1017.3R
PORT WING        0100   70      70/  3/  6 1016.3R
SAXON HARBOR     0100   65      50/  9/ 10 1016.3R
$$

LMZ867-665-643>646-050300-
LAKE MICHIGAN

STATION/POSITION TIME  TEMP    WIND        PRES    WAVE
                       AIR SEA DIR/SP/G            HT/PER
                 (UTC) (F)     (DEG/KT/KT) (MB)    (FT/S)
CHAMBERS ISLAND  0100   66      30/  9/ 12 1015.2R
N MID LAKE BUOY  0150   63 69  350/ 14/ 16 1015.3R   0
NORTHPORT PIER   0100   65      20/  8/ 10 1014.9R
SISTER BAY       0103   66      30/  5/  6   N/A
ALGOMA LAKESHORE 0112           70/ 10/ 13   N/A
KEWAUNEE LAKESHO 0100   62      30/  3/  4 1014.0R
SHEBOYGAN LAKESH 0200   71     320/  3/  4 1015.7R
PORT WASHINGTON  0140   74     300/  2/ 22 1015.6R
ATWATER BUOY     0200   69 66  190/  8/ 10 1017.1R
MILWAUKEE LAKESH 0200   66     230/  3/  3   N/A
KENOSHA   LAKESH 0200   70     200/  6/  7 1015.6R
$$

TC  - TEMPERATURE IN CELSIUS
VSB - VISIBILITY IN STATUTE MILES
WCI - WIND CHILL INDEX
HX  - HEAT INDEX




USA.gov is the U.S. government's official web portal to all federal, state and local government web resources and services.